CW1569 Weather Reports


Display with metric or nautical units.
time (UTC)temp
F
wind
direction
speed
MPH
gust
MPH
rain 1hr
in
rain 24hr
in
rain mn
in
humidity
%
barometer
mb
20200329062601 58 277 15.0 19.0 0.03 0.88 0.35 69 993.6
20200329062124 58 269 13.0 22.0 0.03 0.88 0.35 69 993.7
20200329061618 58 276 15.0 22.0 0.02 0.87 0.34 68 993.7
20200329061112 58 288 18.0 23.0 0.02 0.87 0.34 68 993.7
20200329060603 58 281 15.0 25.0 0.03 0.87 0.34 69 993.8
20200329060126 59 273 18.0 25.0 0.03 0.87 0.34 69 993.9
20200329055622 59 273 18.0 25.0 0.03 0.87 0.34 71 993.9
20200329055117 59 284 15.0 22.0 0.02 0.86 0.33 72 993.9
20200329054611 59 278 17.0 21.0 0.02 0.89 0.33 73 993.8
20200329054105 58 275 13.0 21.0 0.03 0.89 0.33 74 993.7
20200329053601 58 281 14.0 20.0 0.03 0.89 0.33 76 993.9
20200329053123 58 285 14.0 20.0 0.02 0.88 0.32 79 994.0
20200329052618 58 279 13.0 16.0 0.03 0.88 0.32 81 994.0
20200329052113 58 285 13.0 18.0 0.03 0.88 0.32 83 993.9
20200329051608 57 290 14.0 21.0 0.03 0.88 0.32 86 993.8
20200329051104 57 274 10.0 22.0 0.03 0.88 0.32 90 993.9
20200329050613 56 277 14.0 22.0 0.02 0.87 0.31 97 994.0
20200329050109 55 279 16.0 22.0 0.03 0.87 0.31 99 994.1
20200329045605 54 256 18.0 28.0 0.03 0.87 0.31 99 994.1
20200329045127 55 275 13.0 35.0 0.03 0.87 0.31 99 994.3
20200329044622 56 275 18.0 35.0 0.03 0.90 0.31 99 994.6
20200329044117 54 283 15.0 16.0 0.03 0.89 0.30 99 995.0
20200329043613 53 199 4.0 6.0 0.03 0.89 0.30 99 993.8
20200329043108 53 199 4.0 7.0 0.03 0.89 0.30 99 994.0
20200329042604 52 188 5.0 7.0 0.02 0.88 0.29 99 994.0
20200329042127 52 167 5.0 7.0 0.02 0.88 0.29 99 994.0
20200329041621 52 180 4.0 9.0 0.03 0.88 0.29 99 994.1
20200329041117 52 174 6.0 9.0 0.03 0.88 0.29 99 994.1
20200329040608 52 171 4.0 8.0 0.03 0.88 0.29 99 994.0
20200329040103 52 180 5.0 8.0 0.02 0.87 0.28 99 994.1
20200329035626 52 182 6.0 8.0 0.02 0.87 0.28 99 994.1
20200329035122 52 183 6.0 8.0 0.03 0.87 0.28 99 994.1
20200329034617 51 173 6.0 8.0 0.03 0.90 0.28 99 994.5
20200329034111 51 171 6.0 9.0 0.02 0.89 0.27 99 994.7
20200329033607 51 171 6.0 10.0 0.02 0.89 0.27 99 994.9
20200329033103 51 175 7.0 11.0 0.03 0.89 0.27 99 994.9
20200329032626 51 186 6.0 11.0 0.03 0.89 0.27 99 994.9
20200329032120 51 167 6.0 11.0 0.03 0.89 0.27 99 994.9
20200329031616 51 167 8.0 12.0 0.03 0.89 0.27 99 995.0
20200329031113 51 157 6.0 12.0 0.03 0.88 0.26 99 995.0
20200329030602 51 163 8.0 10.0 0.03 0.88 0.26 99 995.1
20200329030125 51 187 7.0 10.0 0.03 0.88 0.26 99 995.1
20200329025620 51 139 7.0 9.0 0.03 0.88 0.26 99 995.4
20200329025116 51 154 7.0 11.0 0.02 0.87 0.25 99 995.6
20200329024611 51 163 8.0 11.0 0.03 0.91 0.25 99 995.7
20200329024107 51 165 5.0 11.0 0.03 0.91 0.25 99 995.7
20200329023602 51 175 6.0 11.0 0.03 0.91 0.25 99 995.8
20200329023119 51 169 7.0 13.0 0.02 0.90 0.24 99 995.9
20200329022615 51 168 11.0 14.0 0.03 0.90 0.24 99 996.0
20200329022111 52 184 10.0 14.0 0.03 0.90 0.24 99 996.2
20200329021607 52 175 9.0 14.0 0.03 0.90 0.24 99 996.3
20200329021103 52 165 12.0 13.0 0.03 0.90 0.24 99 996.6
20200329020621 52 163 11.0 15.0 0.03 0.89 0.23 99 996.6
20200329020116 52 187 11.0 15.0 0.03 0.89 0.23 99 996.8
20200329015610 53 173 10.0 15.0 0.03 0.89 0.23 99 997.0
20200329015105 53 205 9.0 14.0 0.03 0.89 0.23 99 997.4
20200329014601 53 192 10.0 14.0 0.03 0.92 0.22 99 997.1
20200329014123 53 182 8.0 15.0 0.03 0.92 0.22 99 997.2
20200329013620 53 204 7.0 15.0 0.03 0.92 0.22 99 997.3
20200329013115 53 178 9.0 17.0 0.03 0.92 0.22 99 997.2
20200329012610 53 163 11.0 17.0 0.02 0.91 0.21 99 997.6
20200329012105 52 163 11.0 17.0 0.03 0.91 0.21 99 997.4
20200329011627 52 179 8.0 16.0 0.03 0.91 0.21 99 997.5
20200329011122 52 184 13.0 16.0 0.03 0.91 0.21 99 997.7
20200329010611 51 173 9.0 14.0 0.02 0.90 0.20 99 997.6
20200329010106 50 171 10.0 14.0 0.03 0.90 0.20 99 997.5
20200329005602 50 178 8.0 15.0 0.03 0.90 0.20 99 997.5
20200329005124 50 147 10.0 15.0 0.03 0.90 0.20 99 997.5
20200329004634 50 158 8.0 15.0 0.02 0.92 0.19 99 997.4
20200329004115 49 178 11.0 17.0 0.03 0.92 0.19 99 997.7
20200329003611 48 139 10.0 17.0 0.03 0.92 0.19 99 997.6
20200329003107 48 146 7.0 14.0 0.03 0.92 0.19 99 997.6
20200329002602 48 150 8.0 16.0 0.03 0.92 0.19 99 998.0
20200329002124 47 150 9.0 16.0 0.03 0.91 0.18 99 998.1
20200329001619 47 152 9.0 13.0 0.03 0.91 0.18 99 998.4
20200329001118 47 170 6.0 12.0 0.03 0.91 0.18 99 998.7
20200329000606 47 159 7.0 16.0 0.03 0.91 0.18 99 999.6
20200329000101 47 175 7.0 16.0 0.02 0.90 0.17 99 998.6
20200328235622 47 169 6.0 16.0 0.03 0.90 0.17 99 998.9
20200328235118 47 188 12.0 14.0 0.03 0.90 0.17 99 999.3
20200328234614 46 146 9.0 10.0 0.03 0.91 0.17 99 1000.1
20200328234110 46 157 5.0 9.0 0.02 0.90 0.16 99 1000.3
20200328233605 46 106 5.0 13.0 0.03 0.90 0.16 99 1000.5
20200328233127 45 162 6.0 13.0 0.03 0.90 0.16 99 1000.0
20200328232622 45 159 6.0 18.0 0.03 0.90 0.16 99 999.8
20200328232118 45 162 14.0 18.0 0.02 0.89 0.15 98 999.3
20200328231614 45 150 9.0 14.0 0.02 0.89 0.15 99 999.5
20200328231108 44 143 9.0 16.0 0.03 0.89 0.15 98 999.8
20200328230616 44 131 11.0 16.0 0.03 0.89 0.15 98 999.7
20200328230142 44 137 6.0 13.0 0.03 0.89 0.15 98 999.9
20200328225606 44 161 8.0 12.0 0.02 0.88 0.14 98 1000.7
20200328225101 44 114 8.0 12.0 0.03 0.88 0.14 98 1001.0
20200328224624 44 107 6.0 12.0 0.03 0.88 0.14 98 1001.6
20200328224119 44 126 7.0 13.0 0.03 0.88 0.14 98 1001.5
20200328223616 44 120 6.0 13.0 0.02 0.87 0.13 98 1001.4
20200328223111 44 136 7.0 9.0 0.02 0.87 0.13 98 1001.7
20200328222607 44 163 6.0 8.0 0.03 0.87 0.13 98 1002.0
20200328222102 44 118 5.0 7.0 0.03 0.87 0.13 98 1002.6
20200328221625 44 111 3.0 11.0 0.03 0.87 0.13 98 1002.5
20200328221119 44 118 5.0 12.0 0.02 0.86 0.12 98 1001.9
20200328220610 44 119 11.0 13.0 0.03 0.86 0.12 98 1001.3
20200328220106 44 142 9.0 14.0 0.03 0.86 0.12 98 1001.1
20200328215602 44 180 6.0 14.0 0.03 0.86 0.12 98 1001.5
20200328215124 44 131 6.0 16.0 0.02 0.85 0.11 98 1001.5
20200328214619 44 150 8.0 18.0 0.02 0.85 0.11 98 1001.4
20200328214114 44 109 12.0 18.0 0.03 0.85 0.11 98 1001.4
20200328213610 44 116 6.0 14.0 0.03 0.85 0.11 98 1001.4
20200328213106 44 98 11.0 14.0 0.03 0.85 0.11 98 1001.1
20200328212602 44 95 9.0 14.0 0.03 0.84 0.10 98 1001.2
20200328212125 45 92 10.0 14.0 0.03 0.84 0.10 98 1001.6
20200328211620 45 107 7.0 13.0 0.03 0.84 0.10 98 1001.5
20200328211115 45 105 9.0 13.0 0.03 0.84 0.10 98 1001.9
20200328210620 46 93 8.0 15.0 0.03 0.83 0.09 98 1002.0
20200328210115 47 69 11.0 15.0 0.03 0.83 0.09 99 1002.0
20200328205611 48 87 7.0 13.0 0.03 0.83 0.09 98 1001.6
20200328205105 48 84 6.0 12.0 0.03 0.83 0.09 99 1002.0
20200328204627 48 108 4.0 8.0 0.04 0.83 0.09 99 1002.3
20200328204122 48 97 6.0 9.0 0.03 0.82 0.08 99 1002.4
20200328203619 48 96 7.0 9.0 0.03 0.82 0.08 99 1002.5
20200328203114 49 111 8.0 11.0 0.04 0.82 0.08 99 1002.3
20200328202608 49 102 10.0 11.0 0.03 0.81 0.07 99 1002.1
20200328202103 49 93 6.0 11.0 0.03 0.81 0.07 99 1002.2
20200328201624 49 96 7.0 11.0 0.03 0.81 0.07 99 1002.3
20200328201119 49 98 7.0 12.0 0.03 0.81 0.07 99 1002.4
20200328200610 49 117 5.0 13.0 0.02 0.80 0.06 99 1002.2
20200328200105 49 102 6.0 13.0 0.02 0.80 0.06 99 1002.2
20200328195626 49 98 6.0 9.0 0.03 0.80 0.06 99 1002.2
20200328195121 49 78 8.0 9.0 0.03 0.80 0.06 99 1002.2
20200328194616 49 88 6.0 8.0 0.02 0.79 0.05 99 1002.1
20200328194112 49 126 3.0 7.0 0.03 0.79 0.05 99 1002.1
20200328193616 48 123 6.0 8.0 0.03 0.79 0.05 99 1002.0
20200328193103 49 109 7.0 8.0 0.02 0.78 0.04 99 1001.9
20200328192625 49 86 4.0 8.0 0.02 0.78 0.04 99 1002.0
20200328192121 49 128 6.0 8.0 0.03 0.78 0.04 99 1002.2
20200328191617 49 119 3.0 6.0 0.03 0.78 0.04 99 1002.2
20200328191112 48 124 4.0 8.0 0.03 0.78 0.04 99 1002.2
20200328190602 48 119 6.0 8.0 0.04 0.78 0.04 99 1002.5
20200328190125 48 127 4.0 6.0 0.04 0.78 0.04 99 1002.5
20200328185703 47 173 3.0 7.0 0.03 0.77 0.03 99 1002.8
20200328185115 47 152 2.0 11.0 0.03 0.77 0.03 99 1002.6
20200328184611 46 103 7.0 11.0 0.04 0.77 0.03 99 1002.5
20200328184107 46 88 5.0 9.0 0.03 0.76 0.02 99 1002.5
20200328183601 46 127 5.0 9.0 0.03 0.76 0.02 99 1002.7
20200328183125 46 119 4.0 10.0 0.04 0.76 0.02 99 1002.8
20200328182620 46 61 3.0 10.0 0.04 0.76 0.02 99 1003.4
20200328182115 46 58 8.0 10.0 0.03 0.75 0.01 99 1003.5
20200328181611 46 71 2.0 9.0 0.03 0.75 0.01 99 1003.4
20200328181106 46 127 8.0 10.0 0.04 0.75 0.01 99 1003.0
20200328180615 46 156 5.0 10.0 0.03 0.74 0.00 99 1002.6
20200328180111 46 146 8.0 9.0 0.03 0.74 0.00 99 1002.5
20200328175607 46 107 1.0 6.0 0.04 0.74 0.00 99 1003.5
20200328175104 45 135 3.0 7.0 0.04 0.74 0.00 99 1003.8
20200328174605 45 185 2.0 7.0 0.04 0.74 0.74 99 1004.5
20200328174126 45 266 3.0 5.0 0.03 0.73 0.73 99 1005.1
20200328173621 45 202 3.0 3.0 0.04 0.73 0.73 99 1004.4
20200328173116 45 134 0.0 5.0 0.03 0.72 0.72 99 1003.8
20200328172613 45 151 2.0 5.0 0.04 0.72 0.72 99 1003.4
20200328172108 45 152 1.0 4.0 0.04 0.72 0.72 99 1003.6
20200328171603 45 153 0.0 5.0 0.04 0.72 0.72 99 1003.4
20200328171125 45 153 2.0 6.0 0.03 0.71 0.71 99 1003.4
20200328170615 45 141 2.0 6.0 0.04 0.71 0.71 99 1003.3
20200328170112 45 155 4.0 7.0 0.04 0.71 0.71 99 1003.4
20200328165608 45 153 2.0 7.0 0.03 0.70 0.70 99 1003.6
20200328165104 44 134 5.0 7.0 0.04 0.70 0.70 99 1003.5
20200328164602 44 161 5.0 7.0 0.04 0.70 0.70 99 1003.4
20200328164125 44 171 5.0 7.0 0.04 0.70 0.70 98 1003.4
20200328163621 44 167 5.0 7.0 0.03 0.69 0.69 98 1003.6
20200328162608 44 147 4.0 6.0 0.03 0.68 0.68 99 1003.9
20200328162104 44 165 4.0 8.0 0.04 0.68 0.68 99 1003.7
20200328161626 44 131 6.0 8.0 0.04 0.68 0.68 98 1003.6
20200328161121 44 146 6.0 8.0 0.04 0.68 0.68 98 1003.6
20200328160612 43 151 6.0 9.0 0.03 0.67 0.67 98 1003.5
20200328160108 43 133 5.0 9.0 0.04 0.67 0.67 99 1003.7
20200328155603 43 163 5.0 10.0 0.04 0.67 0.67 99 1003.8
20200328155125 43 157 6.0 10.0 0.03 0.66 0.66 99 1003.7
20200328154621 43 176 5.0 9.0 0.04 0.66 0.66 99 1003.8
20200328154115 43 166 7.0 10.0 0.04 0.66 0.66 98 1003.8
20200328153611 43 169 5.0 10.0 0.04 0.66 0.66 99 1003.8
20200328153107 43 146 4.0 12.0 0.03 0.65 0.65 99 1003.8
20200328152603 43 165 4.0 15.0 0.04 0.65 0.65 99 1003.8
20200328152122 43 142 7.0 15.0 0.03 0.64 0.64 99 1003.8
20200328151616 43 123 10.0 12.0 0.04 0.64 0.64 99 1003.9
20200328151111 43 145 9.0 13.0 0.04 0.64 0.64 99 1003.8
20200328150602 42 166 8.0 13.0 0.04 0.64 0.64 98 1003.7
20200328150125 42 171 7.0 12.0 0.04 0.63 0.63 98 1003.8
20200328145622 42 139 6.0 12.0 0.04 0.63 0.63 98 1004.0
20200328145117 42 122 6.0 14.0 0.04 0.63 0.63 98 1004.1
20200328144611 42 129 6.0 16.0 0.04 0.00 0.62 98 1003.9
20200328144106 42 134 11.0 16.0 0.04 0.00 0.62 98 1003.8
20200328143602 42 119 10.0 16.0 0.04 0.00 0.62 98 1003.7
20200328143125 42 141 10.0 15.0 0.05 0.00 0.62 98 1003.7
20200328142620 42 115 7.0 17.0 0.04 0.00 0.61 98 1003.9
20200328142116 42 98 12.0 17.0 0.05 0.00 0.61 98 1004.0
20200328141611 42 119 12.0 15.0 0.04 0.00 0.60 98 1003.9
20200328141107 42 97 9.0 15.0 0.04 0.00 0.60 98 1004.1
20200328140616 42 117 7.0 14.0 0.05 0.00 0.60 98 1004.1
20200328140112 42 110 7.0 18.0 0.04 0.00 0.59 98 1004.2
20200328135607 42 86 12.0 18.0 0.05 0.00 0.59 98 1004.2
20200328135103 42 106 6.0 11.0 0.05 0.00 0.59 98 1004.3
20200328134626 42 106 7.0 11.0 0.04 0.00 0.58 98 1004.4
20200328134121 42 98 8.0 12.0 0.05 0.00 0.58 98 1004.3
20200328133617 42 112 8.0 12.0 0.05 0.00 0.58 98 1004.6
20200328133112 42 115 5.0 12.0 0.05 0.00 0.57 98 1004.2
20200328132607 42 159 5.0 10.0 0.05 0.00 0.57 98 1004.2
20200328132102 42 180 6.0 14.0 0.04 0.00 0.56 98 1004.4
20200328131623 41 123 7.0 22.0 0.05 0.00 0.56 98 1003.6
20200328131119 41 126 17.0 22.0 0.05 0.00 0.56 98 1001.3
20200328130609 41 122 12.0 20.0 0.05 0.00 0.55 98 1001.7
20200328130105 41 78 8.0 14.0 0.05 0.00 0.55 98 1003.5
20200328125601 41 131 8.0 13.0 0.04 0.00 0.54 98 1004.4
20200328125124 41 91 6.0 12.0 0.05 0.00 0.54 98 1005.1
20200328124620 41 95 5.0 14.0 0.05 0.00 0.54 98 1005.1
20200328124116 41 105 9.0 18.0 0.05 0.00 0.53 98 1005.3
20200328123612 41 93 12.0 18.0 0.05 0.00 0.53 98 1004.8
20200328123108 41 71 13.0 18.0 0.05 0.00 0.52 98 1004.2
20200328122603 42 81 9.0 14.0 0.05 0.00 0.52 98 1004.1
20200328122314 42 42 10.0 14.0 0.05 0.00 0.52 98 1004.4
20200328121622 42 95 6.0 13.0 0.05 0.00 0.51 98 1003.8
20200328121117 41 88 11.0 16.0 0.05 0.00 0.51 98 1003.6
20200328120626 41 95 8.0 16.0 0.05 0.00 0.50 98 1003.5
20200328120122 41 86 8.0 14.0 0.05 0.00 0.50 98 1003.4
20200328115618 41 95 10.0 19.0 0.06 0.00 0.50 98 1003.4
20200328115114 42 101 8.0 19.0 0.05 0.00 0.49 98 1003.5
20200328114608 42 76 5.0 21.0 0.06 0.00 0.49 98 1003.1
20200328114102 42 103 7.0 21.0 0.05 0.00 0.48 98 1003.1
20200328113624 42 89 11.0 19.0 0.05 0.00 0.48 98 1002.9
20200328113120 42 87 13.0 18.0 0.05 0.00 0.47 98 1003.4
20200328112614 42 88 13.0 18.0 0.05 0.00 0.47 98 1003.2
20200328112107 42 101 8.0 18.0 0.06 0.00 0.47 98 1003.1
20200328111602 43 69 12.0 15.0 0.05 0.00 0.46 98 1003.4
20200328111125 43 98 9.0 15.0 0.06 0.00 0.46 98 1003.6
20200328110615 43 78 6.0 15.0 0.05 0.00 0.45 98 1003.7
20200328110111 43 57 8.0 15.0 0.05 0.00 0.45 98 1003.3
20200328105607 43 44 5.0 11.0 0.05 0.00 0.44 98 1003.6
20200328105101 43 98 11.0 11.0 0.05 0.00 0.44 98 1003.6
20200328104623 43 76 4.0 10.0 0.05 0.00 0.43 98 1004.3
20200328104119 43 57 4.0 7.0 0.05 0.00 0.43 98 1004.3
20200328103616 43 93 4.0 12.0 0.06 0.00 0.43 98 1004.4
20200328103111 43 88 4.0 15.0 0.05 0.00 0.42 98 1003.7
20200328102606 43 94 10.0 15.0 0.05 0.00 0.42 98 1002.8
20200328102104 43 71 8.0 12.0 0.05 0.00 0.41 98 1002.2
20200328101625 43 112 1.0 6.0 0.05 0.00 0.41 98 1003.6
20200328101119 43 111 5.0 11.0 0.05 0.00 0.40 98 1003.4
20200328100610 43 104 4.0 11.0 0.05 0.00 0.40 98 1002.9
20200328100107 43 77 7.0 10.0 0.05 0.00 0.40 98 1002.3
20200328095603 43 83 6.0 11.0 0.05 0.00 0.39 98 1002.7
20200328095122 43 92 6.0 11.0 0.05 0.00 0.39 98 1002.2
20200328094618 43 107 7.0 8.0 0.04 0.00 0.38 98 1002.0
20200328094114 43 106 6.0 8.0 0.05 0.00 0.38 98 1002.1
20200328093611 43 188 4.0 9.0 0.04 0.00 0.37 98 1002.5
20200328092601 43 177 6.0 9.0 0.05 0.00 0.37 98 1001.4
20200328091116 43 171 6.0 12.0 0.04 0.00 0.35 98 1001.4
20200328090607 43 173 5.0 12.0 0.05 0.00 0.35 98 1000.9
20200328090102 43 157 7.0 12.0 0.05 0.00 0.35 98 1001.4
20200328085624 43 171 4.0 9.0 0.05 0.00 0.34 98 1001.3
20200328085119 43 183 4.0 10.0 0.05 0.00 0.34 98 1001.5
20200328084615 43 180 7.0 10.0 0.05 0.00 0.34 98 1001.2
20200328084111 43 182 4.0 10.0 0.05 0.00 0.33 98 1001.2
20200328083607 43 155 5.0 13.0 0.05 0.00 0.33 98 1001.3
20200328083103 43 177 7.0 13.0 0.05 0.00 0.32 98 1001.7
20200328082626 43 168 9.0 12.0 0.05 0.00 0.32 98 1001.5
20200328082122 43 136 7.0 13.0 0.04 0.00 0.31 98 1001.9
20200328081617 43 159 9.0 13.0 0.05 0.00 0.31 98 1002.2
20200328081113 43 182 5.0 11.0 0.05 0.00 0.31 98 1002.3
20200328080603 43 163 8.0 12.0 0.05 0.00 0.30 98 1002.5
20200328080126 43 180 8.0 12.0 0.05 0.00 0.30 98 1002.8
20200328075621 43 164 5.0 12.0 0.04 0.00 0.29 98 1003.1
20200328075117 43 174 5.0 11.0 0.05 0.00 0.29 98 1003.2
20200328074612 44 139 7.0 12.0 0.05 0.00 0.29 98 1003.1
20200328074108 43 128 6.0 12.0 0.04 0.00 0.28 98 1003.5
20200328073609 44 116 8.0 10.0 0.05 0.00 0.28 98 1003.6
20200328073104 44 163 4.0 10.0 0.04 0.00 0.27 98 1003.9
20200328072600 44 166 7.0 10.0 0.04 0.00 0.27 98 1004.1
20200328072122 44 158 6.0 10.0 0.05 0.00 0.27 98 1003.9
20200328071616 44 159 5.0 10.0 0.04 0.00 0.26 98 1004.0
20200328071110 44 151 7.0 9.0 0.04 0.00 0.26 98 1004.1
20200328070618 44 126 6.0 9.0 0.04 0.00 0.25 98 1004.5
20200328070114 44 163 4.0 8.0 0.04 0.00 0.25 98 1004.9
20200328065609 44 159 5.0 7.0 0.04 0.00 0.25 98 1004.8
20200328065102 44 110 5.0 9.0 0.03 0.00 0.24 98 1005.2
20200328064626 44 82 6.0 9.0 0.04 0.00 0.24 98 1005.2
20200328064120 44 126 7.0 7.0 0.04 0.00 0.24 98 1005.3
20200328063617 44 58 1.0 6.0 0.03 0.00 0.23 98 1006.0
20200328063112 43 48 3.0 6.0 0.03 0.00 0.23 98 1006.4